TimeEDT,TemperatureF,Dew PointF,Humidity,Sea Level PressureIn,VisibilityMPH,Wind Direction,Wind SpeedMPH,Gust SpeedMPH,PrecipitationIn,Events,Conditions,WindDirDegrees,DateUTC
12:56 AM,70.0,60.1,71,29.87,10.0,SSW,13.8,20.7,N/A,,Mostly Cloudy,200,2013-11-01 04:56:00
1:56 AM,69.1,59.0,70,29.81,10.0,South,13.8,23.0,N/A,,Scattered Clouds,180,2013-11-01 05:56:00
2:51 AM,68.0,59.0,73,29.84,10.0,SW,10.4,-,0.00,,Mostly Cloudy,220,2013-11-01 06:51:00
2:56 AM,68.0,57.9,70,29.81,10.0,SW,11.5,-,0.00,,Mostly Cloudy,220,2013-11-01 06:56:00
3:56 AM,66.9,57.9,73,29.79,10.0,SSW,9.2,-,N/A,,Overcast,200,2013-11-01 07:56:00
4:56 AM,66.0,59.0,78,29.78,10.0,SSW,9.2,-,N/A,,Overcast,200,2013-11-01 08:56:00
5:23 AM,66.2,60.8,83,29.79,10.0,SSW,10.4,-,N/A,,Overcast,200,2013-11-01 09:23:00
5:56 AM,66.0,60.1,81,29.76,10.0,SSW,10.4,-,N/A,,Overcast,200,2013-11-01 09:56:00
6:56 AM,66.9,62.1,84,29.77,10.0,South,11.5,-,N/A,,Overcast,190,2013-11-01 10:56:00
7:56 AM,66.9,63.0,87,29.77,10.0,SSW,13.8,-,N/A,,Overcast,200,2013-11-01 11:56:00
8:08 AM,66.2,64.4,94,29.81,7.0,West,16.1,25.3,0.01,Rain,Light Rain,260,2013-11-01 12:08:00
8:14 AM,66.2,64.4,94,29.81,6.0,SW,18.4,-,0.01,Rain,Light Rain,220,2013-11-01 12:14:00
8:56 AM,66.0,63.0,90,29.81,10.0,WSW,11.5,-,0.03,Rain,Light Rain,250,2013-11-01 12:56:00
9:56 AM,64.0,62.1,93,29.83,8.0,WSW,9.2,-,0.01,Rain,Light Rain,250,2013-11-01 13:56:00
10:56 AM,63.0,63.0,100,29.82,4.0,SSW,9.2,-,0.11,Rain,Rain,200,2013-11-01 14:56:00
11:23 AM,64.4,62.6,94,29.82,10.0,SSW,8.1,-,0.02,,Overcast,200,2013-11-01 15:23:00
11:42 AM,64.4,62.6,94,29.81,10.0,SW,6.9,-,0.02,,Overcast,220,2013-11-01 15:42:00
11:56 AM,64.0,62.1,93,29.80,10.0,SW,6.9,-,0.02,,Overcast,220,2013-11-01 15:56:00
12:04 PM,64.4,62.6,94,29.82,10.0,SSW,8.1,-,0.01,Rain,Light Rain,210,2013-11-01 16:04:00
12:56 PM,64.0,63.0,96,29.77,10.0,SSW,6.9,-,0.04,,Overcast,210,2013-11-01 16:56:00
1:24 PM,64.4,62.6,94,29.79,10.0,SSW,10.4,-,N/A,,Overcast,200,2013-11-01 17:24:00
1:56 PM,64.9,63.0,93,29.75,10.0,SSW,11.5,-,N/A,,Overcast,200,2013-11-01 17:56:00
2:23 PM,66.2,62.6,88,29.75,10.0,SSW,10.4,-,N/A,,Overcast,210,2013-11-01 18:23:00
2:56 PM,68.0,61.0,78,29.71,10.0,SSW,8.1,-,N/A,,Mostly Cloudy,210,2013-11-01 18:56:00
3:14 PM,68.0,62.6,83,29.72,10.0,SSW,9.2,-,N/A,,Scattered Clouds,200,2013-11-01 19:14:00
3:56 PM,68.0,61.0,78,29.70,10.0,South,9.2,-,N/A,,Partly Cloudy,180,2013-11-01 19:56:00
4:56 PM,66.0,61.0,84,29.71,10.0,SSE,12.7,-,N/A,,Mostly Cloudy,160,2013-11-01 20:56:00
5:42 PM,64.4,60.8,88,29.72,10.0,South,11.5,-,N/A,,Scattered Clouds,190,2013-11-01 21:42:00
5:56 PM,64.9,61.0,87,29.70,10.0,South,9.2,-,N/A,,Clear,180,2013-11-01 21:56:00
6:56 PM,62.1,60.1,93,29.72,10.0,SSW,8.1,-,N/A,,Clear,200,2013-11-01 22:56:00
7:31 PM,62.6,60.8,94,29.74,10.0,South,6.9,-,N/A,,Mostly Cloudy,190,2013-11-01 23:31:00
7:52 PM,62.6,60.8,94,29.75,10.0,SSW,10.4,-,N/A,,Overcast,200,2013-11-01 23:52:00
7:56 PM,63.0,61.0,93,29.73,10.0,SSW,10.4,-,N/A,,Overcast,210,2013-11-01 23:56:00
8:56 PM,61.0,60.1,97,29.75,10.0,SSW,6.9,-,N/A,,Mostly Cloudy,210,2013-11-02 00:56:00
9:43 PM,60.8,60.8,100,29.77,8.0,SW,5.8,-,N/A,,Partly Cloudy,230,2013-11-02 01:43:00
9:56 PM,60.1,59.0,96,29.75,7.0,SW,3.5,-,N/A,,Clear,230,2013-11-02 01:56:00
10:22 PM,57.2,57.2,100,29.78,0.8,SSW,5.8,-,N/A,,Mist,200,2013-11-02 02:22:00
10:28 PM,57.2,57.2,100,29.78,0.2,SSW,5.8,-,N/A,Fog,Fog,200,2013-11-02 02:28:00
10:39 PM,57.2,57.2,100,29.78,0.5,SSW,4.6,-,N/A,Fog,Fog,200,2013-11-02 02:39:00
10:46 PM,57.2,57.2,100,29.78,1.0,SSW,4.6,-,N/A,,Mist,200,2013-11-02 02:46:00
10:51 PM,57.2,57.2,100,29.78,2.0,SSW,5.8,-,N/A,,Partly Cloudy,200,2013-11-02 02:51:00
10:56 PM,57.9,57.0,97,29.77,2.5,SSW,5.8,-,N/A,,Clear,200,2013-11-02 02:56:00
11:29 PM,57.2,57.2,100,29.78,1.0,SW,3.5,-,N/A,,Clear,220,2013-11-02 03:29:00
11:40 PM,57.2,57.2,100,29.78,0.5,Calm,Calm,-,N/A,Fog,Fog,0,2013-11-02 03:40:00
11:47 PM,57.2,57.2,100,29.78,0.8,Calm,Calm,-,N/A,,Clear,0,2013-11-02 03:47:00
11:54 PM,57.2,57.2,100,29.78,1.0,Calm,Calm,-,N/A,,Clear,0,2013-11-02 03:54:00
11:56 PM,57.0,57.0,100,29.76,0.8,Calm,Calm,-,N/A,,Mist,0,2013-11-02 03:56:00